Location: Peebles
(55.6412°N, 3.1714°W)
Time: 16:36:58
(UTC+01:00)

Cosmos 1934 Rocket - Pass Details

Date: 04 February 2022
Orbit: 938 x 999 km, 83.0° (Epoch: 25 May)

Event Time Altitude Azimuth Distance (km) Brightness Sun altitude
Rises 19:11:56 0° 342° (NNW) 3,631 7.2 -19.6°
Reaches altitude 10° 19:15:12 10° 325° (NW) 2,673 6.8 -20.0°
Maximum altitude 19:19:09 18° 284° (WNW) 2,119 6.7 -20.6°
Drops below altitude 10° 19:23:06 10° 243° (WSW) 2,653 7.1 -21.1°
Sets 19:26:20 0° 225° (SW) 3,593 7.6 -21.6°
